Weather History for White Mountain, AK

Change the Weather History Date:

Saturday, November 2, 2013

  Actual Average (PAKK) Record (PAKK)
Temperature  
Mean Temperature 27 °F -  
Max Temperature 34 °F 22 °F 44 °F (2003)
Min Temperature 21 °F 14 °F -2 °F (2001)
Degree Days  
Heating Degree Days 38    
Moisture  
Dew Point 20 °F    
Average Humidity 79    
Maximum Humidity 93    
Minimum Humidity 59    
Precipitation  
Precipitation 0.00 in - - ()
Sea Level Pressure  
Sea Level Pressure 29.74 in    
Wind  
Wind Speed 9 mph (NE)    
Max Wind Speed 13 mph    
Max Gust Speed -    
Visibility 10 miles    
Events      
Averages and records for this station are not official NWS values.
T = Trace of Precipitation, MM = Missing Value Source: NWS Daily Summary

Daily Weather History Graph

Daily Weather History Graph

Search for Another Location

Airport:

Trip Planner

Search our weather history database for the weather conditions in past years. The results will help you decide how hot, cold, wet, or windy it might be!

Date:

Astronomy

Nov. 02, 2013 Rise Set
Actual Time 10:45 AM AKDT 6:28 PM AKDT
Civil Twilight 9:49 AM AKDT 7:23 PM AKDT
Nautical Twilight 8:51 AM AKDT 8:21 PM AKDT
Astronomical Twilight 7:54 AM AKDT 9:18 PM AKDT
Moon 9:45 AM AKDT (11/2) 6:11 PM AKDT (11/2)
Length of Visible Light 9h 33m
Length of Day
7h 42m
Waning Crescent, 1% of the Moon is Illuminated
Nov 2
Waning Crescent
Nov 3
New
Nov 9
First Quarter
Nov 17
Full
Nov 25
Last Quarter

Hourly Weather History & Observations

Time (AKDT) Temp. Windchill Dew Point Humidity Pressure Visibility Wind Dir Wind Speed Gust Speed Precip Events Conditions
12:52 AM 26.6 °F 16.2 °F 24.8 °F 93% 29.89 in 10.0 mi ESE 11.5 mph - N/A   Partly Cloudy
12:58 AM 27.0 °F 16.1 °F 25.0 °F 92% 29.92 in 10.0 mi SE 12.7 mph - N/A   Partly Cloudy
1:58 AM 27.0 °F 16.7 °F 24.1 °F 89% 29.91 in 10.0 mi ESE 11.5 mph - N/A   Clear
2:58 AM 26.1 °F 15.6 °F 23.0 °F 88% 29.89 in 10.0 mi East 11.5 mph - N/A   Clear
3:58 AM 27.0 °F 19.5 °F 21.9 °F 81% 29.87 in 10.0 mi ESE 6.9 mph - N/A   Clear
4:58 AM 26.1 °F 16.8 °F 21.9 °F 84% 29.84 in 10.0 mi SE 9.2 mph - N/A   Clear
5:58 AM 26.1 °F 16.2 °F 21.0 °F 81% 29.82 in 10.0 mi East 10.4 mph - N/A   Clear
6:58 AM 26.1 °F 17.6 °F 21.0 °F 81% 29.78 in 10.0 mi East 8.1 mph - N/A   Clear
7:58 AM 26.1 °F 16.8 °F 19.9 °F 78% 29.75 in 10.0 mi East 9.2 mph - N/A   Clear
8:58 AM 24.1 °F 17.0 °F 18.0 °F 77% 29.74 in 10.0 mi North 5.8 mph - N/A   Clear
9:58 AM 23.0 °F 15.8 °F 18.0 °F 81% 29.72 in 10.0 mi NNE 5.8 mph - N/A   Clear
10:58 AM 21.9 °F 14.5 °F 17.1 °F 82% 29.72 in 9.0 mi North 5.8 mph - N/A   Clear
11:58 AM 24.1 °F 18.2 °F 18.0 °F 77% 29.72 in 9.0 mi East 4.6 mph - N/A   Clear
12:58 PM 27.0 °F 20.5 °F 19.0 °F 72% 29.71 in 9.0 mi North 5.8 mph - N/A   Clear
1:58 PM 28.0 °F 22.8 °F 19.9 °F 72% 29.70 in 9.0 mi North 4.6 mph - N/A   Clear
2:58 PM 28.9 °F 23.9 °F 21.0 °F 72% 29.68 in 9.0 mi North 4.6 mph - N/A   Clear
3:58 PM 33.1 °F - 19.9 °F 59% 29.67 in 9.0 mi Calm Calm - N/A   Clear
4:58 PM 32.0 °F - 21.0 °F 64% 29.66 in 9.0 mi Calm Calm - N/A   Clear
5:58 PM 28.0 °F 22.8 °F 19.9 °F 72% 29.65 in 9.0 mi North 4.6 mph - N/A   Clear
6:58 PM 26.1 °F 20.5 °F 19.9 °F 78% 29.64 in 9.0 mi NNE 4.6 mph - N/A   Clear
7:58 PM 24.1 °F 15.2 °F 18.0 °F 77% 29.64 in 10.0 mi North 8.1 mph - N/A   Clear
8:58 PM 21.9 °F 12.5 °F 17.1 °F 82% 29.64 in 10.0 mi North 8.1 mph - N/A   Clear
9:58 PM 21.9 °F 12.5 °F 17.1 °F 82% 29.64 in 10.0 mi North 8.1 mph - N/A   Mostly Cloudy
10:58 PM 23.0 °F 13.1 °F 17.1 °F 78% 29.62 in 10.0 mi North 9.2 mph - N/A   Overcast
11:58 PM 23.0 °F 12.4 °F 17.1 °F 78% 29.61 in 10.0 mi North 10.4 mph - N/A   Overcast